Location: Unspecified
(34.4950°S, 58.5160°W)
Time: 15:09:41
(UTC+00:00)

Cosmos 1655 Rocket - Pass Details

Date: 01 July 2022
Orbit: 971 x 1005 km, 83.0° (Epoch: 11 August)

Event Time Altitude Azimuth Distance (km) Brightness Sun altitude
Rises 09:43:26 0° 174° (S) 3,748 6.9 -15.7°
Reaches altitude 10° 09:46:25 10° 162° (SSE) 2,786 6.4 -15.1°
Maximum altitude 09:51:47 28° 105° (ESE) 1,783 6.0 -14.0°
Drops below altitude 10° 09:57:04 10° 47° (NE) 2,739 7.5 -13.0°
Sets 09:59:57 0° 35° (NE) 3,674 8.0 -12.5°
